FW7501 Weather Reports


time (UTC)temp
F
wind
direction
speed
knots
gust
knots
rain 1hr
in
rain 24hr
in
rain mn
in
humidity
%
barometer
mb
20260506185509 38 269 3.5 7.0 0.00 0.24 0.00 80 1019.8
20260506185007 38 262 2.6 7.0 0.00 0.24 0.00 80 1019.7
20260506184526 38 254 1.7 7.0 0.00 0.24 0.00 80 1019.6
20260506184007 38 265 2.6 6.1 0.00 0.24 0.00 80 1019.5
20260506183015 38 240 2.6 10.4 0.00 0.24 0.00 80 1019.4
20260506182506 38 258 6.1 10.4 0.00 0.24 0.00 80 1019.4
20260506182013 38 246 5.2 8.7 0.00 0.24 0.00 80 1019.3
20260506181008 38 245 3.5 12.2 0.00 0.24 0.00 80 1019.0
20260506180511 39 268 7.0 12.2 0.00 0.24 0.00 80 1019.1
20260506174518 39 263 6.1 11.3 0.00 0.24 0.00 80 1019.1
20260506174012 39 267 4.3 13.0 0.00 0.24 0.00 79 1019.1
20260506173508 39 255 7.8 13.0 0.00 0.24 0.00 79 1019.1
20260506173008 39 245 7.0 14.8 0.00 0.24 0.00 78 1019.2
20260506172504 40 247 8.7 14.8 0.00 0.24 0.00 78 1019.2
20260506172003 40 245 10.4 14.8 0.00 0.24 0.00 78 1019.2
20260506171507 40 251 8.7 13.9 0.00 0.24 0.00 78 1019.2
20260506171005 40 241 9.6 13.9 0.00 0.24 0.00 78 1019.2
20260506170504 40 223 7.0 13.9 0.00 0.24 0.00 79 1019.3
20260506170004 39 243 7.0 11.3 0.00 0.24 0.00 79 1019.2
20260506165504 39 238 5.2 13.0 0.00 0.24 0.00 79 1019.2
20260506165005 40 239 6.1 13.0 0.00 0.24 0.00 78 1019.3
20260506164506 40 250 7.0 13.9 0.00 0.24 0.00 78 1019.2
20260506164009 40 243 7.0 13.9 0.00 0.24 0.00 77 1019.2
20260506163006 40 229 7.0 12.2 0.00 0.24 0.00 77 1019.3
20260506161504 40 197 5.2 8.7 0.00 0.24 0.00 78 1019.3
20260506161004 40 200 4.3 7.8 0.00 0.24 0.00 79 1019.2
20260506160504 40 225 2.6 7.8 0.00 0.24 0.00 79 1019.3
20260506160015 40 171 4.3 7.8 0.00 0.24 0.00 78 1019.2
20260506155505 40 185 1.7 7.0 0.00 0.24 0.00 78 1019.3
20260506155008 40 200 3.5 9.6 0.00 0.24 0.00 78 1019.3
20260506154511 41 197 5.2 11.3 0.00 0.24 0.00 77 1019.3
20260506154007 41 157 5.2 11.3 0.00 0.24 0.00 76 1019.3
20260506153503 41 185 7.8 10.4 0.00 0.24 0.00 75 1019.3
20260506153009 42 202 6.1 11.3 0.00 0.24 0.00 74 1019.3
20260506152502 42 229 7.0 11.3 0.00 0.24 0.00 74 1019.3
20260506152006 42 256 2.6 7.8 0.00 0.24 0.00 74 1019.2
20260506151514 41 219 1.7 4.3 0.00 0.24 0.00 74 1019.2
20260506151003 41 185 0.0 3.5 0.00 0.24 0.00 74 1019.2
20260506150013 41 172 1.7 5.2 0.00 0.24 0.00 73 1019.4
20260506145508 41 196 1.7 5.2 0.00 0.24 0.00 73 1019.4
20260506145006 41 206 2.6 7.8 0.00 0.24 0.00 73 1019.3
20260506144509 42 229 2.6 8.7 0.00 0.24 0.00 73 1019.3
20260506144006 42 255 3.5 9.6 0.00 0.24 0.00 72 1019.3
20260506143506 42 223 5.2 10.4 0.00 0.24 0.00 72 1019.3
20260506143013 42 274 6.1 11.3 0.00 0.24 0.00 72 1019.3
20260506142503 42 243 7.0 13.0 0.00 0.24 0.00 72 1019.2
20260506142002 42 220 6.1 14.8 0.00 0.24 0.00 71 1019.1
20260506141504 42 246 9.6 14.8 0.00 0.24 0.00 72 1019.1
20260506141005 43 251 8.7 16.5 0.00 0.24 0.00 72 1019.1
20260506140505 43 229 12.2 16.5 0.00 0.24 0.00 71 1019.1
20260506140003 43 247 8.7 14.8 0.00 0.24 0.00 72 1019.1
20260506135504 43 248 7.0 13.9 0.00 0.24 0.24 74 1019.2
20260506135002 44 211 8.7 13.9 0.00 0.24 0.24 74 1019.1
20260506134506 44 235 7.0 15.6 0.00 0.24 0.24 74 1018.9
20260506134002 44 245 9.6 18.2 0.00 0.24 0.24 73 1018.9
20260506133004 45 237 7.0 16.5 0.00 0.24 0.24 74 1018.9
20260506131503 45 236 6.1 14.8 0.00 0.24 0.24 75 1018.8
20260506130506 45 259 9.6 13.9 0.00 0.24 0.24 77 1018.6
20260506130008 46 268 7.0 12.2 0.00 0.24 0.24 76 1018.6
20260506125502 46 256 7.0 13.0 0.00 0.24 0.24 76 1018.6
20260506125005 46 250 7.8 13.0 0.00 0.24 0.24 77 1018.7
20260506124513 46 237 7.8 13.0 0.00 0.24 0.24 77 1018.7
20260506124002 45 251 6.1 10.4 0.00 0.24 0.24 78 1018.7
20260506122507 45 241 7.8 14.8 0.00 0.24 0.24 79 1018.7
20260506122003 45 256 9.6 14.8 0.00 0.24 0.24 79 1018.7
20260506121505 45 239 7.0 12.2 0.00 0.24 0.24 80 1018.6
20260506121003 45 226 7.8 13.0 0.00 0.24 0.24 81 1018.7
20260506120004 45 258 7.8 14.8 0.00 0.24 0.24 82 1018.6
20260506115503 45 266 7.8 14.8 0.01 0.24 0.24 83 1018.7
20260506115007 45 237 7.8 14.8 0.03 0.24 0.24 83 1018.6
20260506114503 45 247 8.7 17.4 0.03 0.24 0.24 84 1018.6
20260506114006 45 256 7.0 17.4 0.03 0.24 0.24 84 1018.6
20260506113503 45 265 7.8 16.5 0.04 0.24 0.24 85 1018.6
20260506113004 45 228 8.7 16.5 0.04 0.24 0.24 85 1018.6
20260506111004 45 224 10.4 21.7 0.09 0.23 0.23 85 1018.8
20260506110504 45 202 13.9 25.2 0.18 0.23 0.23 85 1018.6
20260506110006 45 229 13.9 30.4 0.22 0.23 0.23 85 1018.6
20260506105507 46 185 16.5 30.4 0.21 0.22 0.22 85 1018.5
20260506105004 48 257 9.6 15.6 0.19 0.21 0.21 86 1018.2
20260506104509 48 223 7.0 14.8 0.19 0.21 0.21 86 1018.1
20260506104004 48 225 6.1 15.6 0.18 0.20 0.20 86 1018.0
20260506103508 48 255 9.6 15.6 0.18 0.19 0.19 86 1018.0
20260506103018 49 259 8.7 14.8 0.18 0.19 0.19 85 1017.9
20260506102504 48 247 7.8 14.8 0.17 0.18 0.18 85 1017.8
20260506101506 48 235 4.3 13.0 0.16 0.17 0.17 84 1017.8
20260506101008 49 243 7.0 13.9 0.14 0.14 0.14 82 1017.9
20260506100504 51 206 8.7 14.8 0.05 0.05 0.05 83 1017.8
20260506100005 52 313 6.1 15.6 0.01 0.01 0.01 84 1016.9
20260506095504 51 354 6.1 15.6 0.01 0.01 0.01 84 1016.4
20260506095005 51 359 8.7 13.0 0.01 0.01 0.01 84 1016.4
20260506094506 51 341 7.0 16.5 0.01 0.01 0.01 84 1016.5
20260506094003 51 353 8.7 16.5 0.01 0.01 0.01 83 1016.6
20260506093507 51 16 9.6 16.5 0.01 0.01 0.01 83 1016.7
20260506093013 51 351 11.3 16.5 0.01 0.01 0.01 83 1016.8
20260506092507 51 345 9.6 15.6 0.01 0.01 0.01 83 1016.9
20260506092004 52 342 9.6 16.5 0.01 0.01 0.01 82 1016.8
20260506091517 52 340 10.4 17.4 0.00 0.00 0.00 82 1016.9
20260506091004 52 330 11.3 19.1 0.00 0.00 0.00 81 1016.9
20260506090501 52 324 13.0 19.1 0.00 0.00 0.00 80 1016.9
20260506090015 52 343 12.2 20.9 0.00 0.00 0.00 80 1016.8
20260506085505 53 331 11.3 20.9 0.00 0.00 0.00 78 1016.6
20260506085008 53 1 12.2 20.9 0.00 0.00 0.00 76 1016.5
20260506084511 53 357 13.9 20.9 0.00 0.00 0.00 75 1016.3
20260506084005 53 22 13.9 20.0 0.00 0.00 0.00 75 1016.1
20260506083507 53 331 9.6 21.7 0.00 0.00 0.00 74 1016.1
20260506083009 53 12 12.2 21.7 0.00 0.00 0.00 74 1016.1
20260506082506 53 324 9.6 17.4 0.00 0.00 0.00 74 1016.1
20260506082012 53 13 8.7 18.2 0.00 0.00 0.00 74 1016.1
20260506081509 53 25 9.6 18.2 0.00 0.00 0.00 74 1016.0
20260506081011 53 356 7.8 20.0 0.00 0.00 0.00 74 1016.0
20260506080507 53 357 8.7 20.0 0.00 0.00 0.00 74 1016.0
20260506073009 54 355 7.0 14.8 0.00 0.00 0.00 74 1015.9
20260506072003 54 345 7.8 14.8 0.00 0.00 0.00 73 1016.0
20260506071519 54 311 7.0 15.6 0.00 0.00 0.00 73 1016.1
20260506071006 55 343 9.6 15.6 0.00 0.00 0.00 72 1016.1
20260506070507 55 359 7.0 18.2 0.00 0.00 0.00 72 1016.1
20260506062510 54 6 5.2 16.5 0.00 0.00 0.00 72 1016.7
20260506062011 55 10 7.8 16.5 0.00 0.00 0.00 71 1016.7
20260506061007 56 360 8.7 18.2 0.00 0.00 0.00 68 1016.7
20260506060504 56 333 10.4 18.2 0.00 0.00 0.00 68 1016.8
20260506051003 56 10 8.7 16.5 0.00 0.00 0.00 69 1017.9
20260506050503 56 360 8.7 20.9 0.00 0.00 0.00 66 1017.8
20260506045005 57 337 12.2 20.0 0.00 0.00 0.00 63 1017.9
20260506044519 58 349 12.2 20.0 0.00 0.00 0.00 63 1017.8
20260506044006 58 324 13.9 19.1 0.00 0.00 0.00 62 1017.8
20260506043503 58 327 13.0 19.1 0.00 0.00 0.00 61 1017.9
20260506043004 58 343 9.6 20.9 0.00 0.00 0.00 61 1018.0
20260506042504 58 333 14.8 20.0 0.00 0.00 0.00 62 1017.9
20260506042004 58 309 10.4 20.9 0.00 0.00 0.00 62 1018.0
20260506041505 58 320 12.2 20.9 0.00 0.00 0.00 63 1018.1
20260506041004 57 352 12.2 20.0 0.00 0.00 0.00 64 1018.0
20260506040504 58 332 12.2 18.2 0.00 0.00 0.00 63 1018.1
20260506040008 57 337 12.2 18.2 0.00 0.00 0.00 63 1018.1
20260506035503 57 311 12.2 20.9 0.00 0.00 0.00 62 1018.1
20260506035004 57 327 12.2 20.9 0.00 0.00 0.00 63 1018.2
20260506034506 57 328 13.0 20.0 0.00 0.00 0.00 63 1018.3
20260506033505 56 340 10.4 16.5 0.00 0.00 0.00 64 1018.5
20260506033006 57 324 8.7 13.0 0.00 0.00 0.00 64 1018.6
20260506032506 57 328 7.8 16.5 0.00 0.00 0.00 65 1018.8
20260506032011 57 303 8.7 16.5 0.00 0.00 0.00 65 1019.0
20260506031505 56 316 7.8 15.6 0.00 0.00 0.00 66 1019.1
20260506031005 56 318 9.6 16.5 0.00 0.00 0.00 65 1019.2
20260506030503 55 314 10.4 16.5 0.00 0.00 0.00 64 1019.2
20260506030006 55 314 10.4 13.9 0.00 0.00 0.00 65 1019.2
20260506025506 55 298 10.4 15.6 0.00 0.00 0.00 65 1019.1
20260506025004 56 297 7.8 15.6 0.00 0.00 0.00 66 1019.2
20260506024510 56 315 8.7 15.6 0.00 0.00 0.00 65 1019.3
20260506024010 56 318 7.8 15.6 0.00 0.00 0.00 65 1019.4
20260506023014 56 327 8.7 14.8 0.00 0.00 0.00 65 1019.6
20260506022505 56 308 9.6 14.8 0.00 0.00 0.00 65 1019.6
20260506022006 56 301 12.2 14.8 0.00 0.00 0.00 64 1019.8
20260506021511 56 314 9.6 14.8 0.00 0.00 0.00 66 1019.8
20260506021004 55 312 7.8 13.0 0.00 0.00 0.00 67 1019.9
20260506020507 55 311 7.8 11.3 0.00 0.00 0.00 68 1020.2
20260506015505 55 316 8.7 11.3 0.00 0.00 0.00 71 1020.3
20260506015005 55 325 7.0 12.2 0.00 0.00 0.00 72 1020.2
20260506014508 54 326 7.0 13.9 0.00 0.00 0.00 71 1020.2
20260506014004 54 339 7.8 13.9 0.00 0.00 0.00 71 1020.4
20260506013504 54 334 7.0 13.9 0.00 0.00 0.00 71 1020.4
20260506012504 54 349 6.1 13.9 0.00 0.00 0.00 71 1020.5
20260506012009 54 5 7.8 13.9 0.00 0.00 0.00 70 1020.6
20260506011520 54 345 7.8 13.9 0.00 0.00 0.00 70 1020.7
20260506011010 54 13 7.8 13.9 0.00 0.00 0.00 70 1020.7
20260506010022 54 326 7.8 14.8 0.00 0.00 0.00 70 1020.9
20260506005511 54 20 7.0 13.0 0.00 0.00 0.00 68 1020.9
20260506005003 55 355 7.8 13.0 0.00 0.00 0.00 69 1020.8
20260506004524 55 345 6.1 13.0 0.00 0.00 0.00 69 1020.9
20260506004005 55 335 7.8 13.0 0.00 0.00 0.00 68 1020.9
20260506003504 55 33 5.2 12.2 0.00 0.00 0.00 68 1021.0
20260506003009 55 359 7.0 12.2 0.00 0.00 0.00 68 1021.1
20260506002507 55 355 4.3 10.4 0.00 0.00 0.00 69 1021.2
20260506002006 55 331 5.2 12.2 0.00 0.00 0.00 68 1021.2
20260506001511 54 341 6.1 12.2 0.00 0.00 0.00 69 1021.2
20260506000507 54 337 6.1 12.2 0.00 0.00 0.00 68 1021.3
20260506000010 54 11 7.0 12.2 0.00 0.00 0.00 68 1021.3
20260505235511 54 345 6.1 11.3 0.00 0.00 0.00 69 1021.3
20260505235008 54 1 5.2 11.3 0.00 0.00 0.00 70 1021.4
20260505234512 53 16 7.0 11.3 0.00 0.00 0.00 70 1021.3
20260505234008 53 2 5.2 11.3 0.00 0.00 0.00 70 1021.4
20260505233027 53 340 5.2 9.6 0.00 0.00 0.00 70 1021.5
20260505232004 53 343 7.0 12.2 0.00 0.00 0.00 71 1021.6
20260505231513 53 15 6.1 9.6 0.00 0.00 0.00 71 1021.6
20260505231006 53 8 5.2 9.6 0.00 0.00 0.00 71 1021.6
20260505230506 53 349 5.2 9.6 0.00 0.00 0.00 71 1021.5
20260505230029 53 341 5.2 8.7 0.00 0.00 0.00 71 1021.7
20260505225508 52 2 5.2 8.7 0.00 0.00 0.00 71 1021.7
20260505225012 52 341 6.1 8.7 0.00 0.00 0.00 71 1021.6
20260505224518 52 337 4.3 8.7 0.00 0.00 0.00 71 1021.7
20260505224008 52 349 5.2 8.7 0.00 0.00 0.00 71 1021.6
20260505223511 52 330 5.2 8.7 0.00 0.00 0.00 71 1021.6
20260505223021 52 339 3.5 7.0 0.00 0.00 0.00 72 1021.5
20260505222511 52 337 4.3 7.0 0.00 0.00 0.00 71 1021.5
20260505222015 52 4 3.5 7.8 0.00 0.00 0.00 71 1021.5
20260505221519 52 16 3.5 7.8 0.00 0.00 0.00 71 1021.5
20260505221012 52 344 3.5 7.0 0.00 0.00 0.00 71 1021.5
20260505220506 52 8 3.5 7.0 0.00 0.00 0.00 71 1021.5
20260505220013 52 10 2.6 7.8 0.00 0.00 0.00 71 1021.6
20260505215508 51 23 4.3 7.8 0.00 0.00 0.00 71 1021.6
20260505215007 51 339 3.5 7.8 0.00 0.00 0.00 71 1021.6
20260505214504 51 330 4.3 7.8 0.00 0.00 0.00 72 1021.6
20260505214003 51 14 1.7 5.2 0.00 0.00 0.00 72 1021.7
20260505213503 51 358 0.9 6.1 0.00 0.00 0.00 72 1021.7
20260505213004 51 16 1.7 6.1 0.00 0.00 0.00 72 1021.7
20260505212503 51 14 2.6 6.1 0.00 0.00 0.00 72 1021.7
20260505212003 51 358 0.0 6.1 0.00 0.00 0.00 72 1021.5
20260505211504 51 341 2.6 6.1 0.00 0.00 0.00 72 1021.7
20260505211003 51 4 1.7 4.3 0.00 0.00 0.00 73 1021.8
20260505210507 51 14 1.7 6.1 0.00 0.00 0.00 73 1021.8
20260505210004 51 360 2.6 6.1 0.00 0.00 0.00 73 1021.6
20260505205513 51 13 1.7 5.2 0.00 0.00 0.00 73 1021.6
20260505205006 51 358 3.5 5.2 0.00 0.00 0.00 73 1021.7
20260505204506 51 337 3.5 5.2 0.00 0.00 0.00 73 1021.8
20260505204006 51 359 2.6 6.1 0.00 0.00 0.00 73 1021.7
20260505203503 51 10 2.6 6.1 0.00 0.00 0.00 73 1021.7
20260505203013 51 4 2.6 5.2 0.00 0.00 0.00 73 1021.8
20260505202503 51 4 1.7 5.2 0.00 0.00 0.00 73 1021.7
20260505202004 51 8 1.7 4.3 0.00 0.00 0.00 73 1021.7
20260505201506 51 10 1.7 6.1 0.00 0.00 0.00 73 1021.7
20260505201004 51 339 2.6 6.1 0.00 0.00 0.00 74 1021.5
20260505200504 51 341 1.7 4.3 0.00 0.00 0.00 74 1021.5
20260505200009 51 349 1.7 5.2 0.00 0.00 0.00 73 1021.5
20260505195504 51 348 1.7 5.2 0.00 0.00 0.00 73 1021.5
20260505195007 51 10 2.6 5.2 0.00 0.00 0.00 73 1021.4
20260505194514 51 15 0.9 5.2 0.00 0.00 0.00 74 1021.4
20260505194004 51 14 0.9 3.5 0.00 0.00 0.00 74 1021.4
20260505193512 51 17 0.0 5.2 0.00 0.00 0.00 74 1021.4
20260505193011 51 16 2.6 5.2 0.00 0.00 0.00 74 1021.4
20260505192503 51 4 0.9 3.5 0.00 0.00 0.00 74 1021.4
20260505192008 51 4 1.7 3.5 0.00 0.00 0.00 74 1021.5
20260505191513 51 360 0.9 3.5 0.00 0.00 0.00 73 1021.5
20260505191009 51 2 0.9 3.5 0.00 0.00 0.00 74 1021.6
20260505190504 51 352 0.0 2.6 0.00 0.00 0.00 73 1021.5
20260505190005 51 353 0.9 2.6 0.00 0.00 0.00 73 1021.6